When you browse on this site, cookies collect data to enhance your experience and personalize the content and advertising you see.
Visit our Privacy Policy to learn more. By continuing to use the site, you agree to this use of cookies and data.
  • In Portugal
  • List of Countries
  • For 7 days
  • Water Temperature
  • Satellite Maps
  • Weather Map
  • Weather Widgets
  • user-avatar
    Login

    Hourly Weather Pomianowo

    Today, 21 March, Thursday

    Time Temperature Precipitation Wind Pressure Humidity
    00:00 +6°C° 0 mm 5 mps 769 mmHg 93%
    01:00 +6°C° 0 mm 4 mps 769 mmHg 94%
    02:00 +6°C° 0 mm 4 mps 769 mmHg 94%
    03:00 +6°C° 0 mm 4 mps 769 mmHg 95%
    04:00 +5°C° 0 mm 4 mps 769 mmHg 95%
    05:00 +5°C° 0 mm 4 mps 769 mmHg 95%
    06:00 +5°C° 0 mm 4 mps 769 mmHg 94%
    07:00 +5°C° 0 mm 4 mps 769 mmHg 94%
    08:00 +6°C° 0 mm 4 mps 769 mmHg 93%
    09:00 +6°C° 0 mm 5 mps 769 mmHg 92%
    10:00 +6°C° 0 mm 5 mps 769 mmHg 90%
    11:00 +7°C° 0 mm 5 mps 769 mmHg 87%
    12:00 +9°C° 0 mm 5 mps 769 mmHg 83%
    13:00 +9°C° 0 mm 6 mps 769 mmHg 83%
    14:00 +9°C° 0 mm 5 mps 769 mmHg 83%
    15:00 +9°C° 0 mm 5 mps 769 mmHg 84%
    16:00 +9°C° 0 mm 5 mps 768 mmHg 84%
    17:00 +9°C° 0 mm 5 mps 769 mmHg 86%
    18:00 +9°C° 0 mm 5 mps 769 mmHg 88%
    19:00 +8°C° 0 mm 4 mps 769 mmHg 90%
    20:00 +8°C° 0 mm 5 mps 769 mmHg 90%
    21:00 +8°C° 0 mm 5 mps 769 mmHg 89%
    22:00 +8°C° 0 mm 5 mps 769 mmHg 89%
    23:00 +7°C° 0 mm 5 mps 769 mmHg 90%

    Tomorrow, 22 March, Friday

    Time Temperature Precipitation Wind Pressure Humidity
    00:00 +7°C° 0 mm 5 mps 769 mmHg 92%
    01:00 +7°C° 0 mm 4 mps 769 mmHg 93%
    02:00 +7°C° 0 mm 4 mps 770 mmHg 93%
    03:00 +7°C° 0 mm 3 mps 770 mmHg 94%
    04:00 +7°C° 0 mm 3 mps 770 mmHg 95%
    05:00 +7°C° 0 mm 2 mps 770 mmHg 95%
    06:00 +7°C° 0 mm 2 mps 771 mmHg 95%
    07:00 +8°C° 0 mm 1 mps 771 mmHg 95%
    08:00 +9°C° 0 mm 1 mps 771 mmHg 90%
    09:00 +10°C° 0 mm 1 mps 771 mmHg 85%
    10:00 +11°C° 0 mm 1 mps 772 mmHg 79%
    11:00 +12°C° 0 mm 1 mps 772 mmHg 76%
    12:00 +12°C° 0 mm 0 mps 772 mmHg 74%
    13:00 +12°C° 0 mm 0 mps 772 mmHg 71%
    14:00 +12°C° 0 mm 0 mps 771 mmHg 70%
    15:00 +13°C° 0 mm 1 mps 771 mmHg 69%
    16:00 +14°C° 0 mm 1 mps 771 mmHg 69%
    17:00 +13°C° 0 mm 1 mps 770 mmHg 73%
    18:00 +12°C° 0 mm 2 mps 770 mmHg 78%
    19:00 +10°C° 0 mm 2 mps 770 mmHg 82%
    20:00 +9°C° 0 mm 2 mps 769 mmHg 84%
    21:00 +9°C° 0 mm 2 mps 769 mmHg 86%
    22:00 +9°C° 0 mm 3 mps 769 mmHg 87%
    23:00 +9°C° 0 mm 3 mps 768 mmHg 89%

    Day after tomorrow, 23 March, Saturday

    Time Temperature Precipitation Wind Pressure Humidity
    00:00 +8°C° 0 mm 3 mps 768 mmHg 90%
    01:00 +8°C° 0 mm 3 mps 768 mmHg 92%
    02:00 +7°C° 0 mm 4 mps 767 mmHg 92%
    03:00 +7°C° 0 mm 4 mps 766 mmHg 93%
    04:00 +7°C° 0 mm 4 mps 766 mmHg 93%
    05:00 +7°C° 0 mm 4 mps 766 mmHg 92%
    06:00 +7°C° 0 mm 4 mps 765 mmHg 92%
    07:00 +7°C° 0 mm 4 mps 765 mmHg 91%
    08:00 +10°C° 0 mm 4 mps 765 mmHg 85%
    09:00 +12°C° 0 mm 4 mps 765 mmHg 80%
    10:00 +13°C° 0 mm 4 mps 765 mmHg 74%
    11:00 +14°C° 0 mm 4 mps 765 mmHg 72%
    12:00 +15°C° 0 mm 5 mps 764 mmHg 70%
    13:00 +15°C° 0 mm 5 mps 764 mmHg 68%
    14:00 +14°C° 0 mm 5 mps 764 mmHg 71%
    15:00 +11°C° 0 mm 6 mps 765 mmHg 74%
    16:00 +10°C° 0 mm 6 mps 765 mmHg 77%
    17:00 +8°C° 0 mm 5 mps 765 mmHg 76%
    18:00 +7°C° 0 mm 5 mps 766 mmHg 75%
    19:00 +6°C° 0 mm 4 mps 766 mmHg 75%
    20:00 +6°C° 0 mm 4 mps 767 mmHg 73%
    21:00 +5°C° 0 mm 4 mps 767 mmHg 71%
    22:00 +4°C° 0 mm 4 mps 768 mmHg 70%
    23:00 +4°C° 0 mm 3 mps 768 mmHg 71%

    24 March, Sunday

    Time Temperature Precipitation Wind Pressure Humidity
    00:00 +3°C° 0 mm 3 mps 768 mmHg 72%
    01:00 +3°C° 0 mm 3 mps 768 mmHg 73%
    02:00 +3°C° 0 mm 3 mps 768 mmHg 74%
    03:00 +3°C° 0 mm 3 mps 768 mmHg 76%
    04:00 +3°C° 0 mm 3 mps 768 mmHg 77%
    05:00 +3°C° 0 mm 3 mps 768 mmHg 77%
    06:00 +3°C° 0 mm 3 mps 768 mmHg 77%
    07:00 +3°C° 0 mm 3 mps 768 mmHg 78%
    08:00 +4°C° 0 mm 4 mps 768 mmHg 74%
    09:00 +5°C° 0 mm 4 mps 768 mmHg 70%
    10:00 +6°C° 0 mm 5 mps 768 mmHg 66%
    11:00 +6°C° 0 mm 5 mps 768 mmHg 65%
    12:00 +6°C° 0 mm 5 mps 768 mmHg 64%
    13:00 +6°C° 0 mm 5 mps 768 mmHg 64%
    14:00 +6°C° 0 mm 5 mps 767 mmHg 63%
    15:00 +6°C° 0 mm 5 mps 767 mmHg 62%
    16:00 +5°C° 0 mm 6 mps 767 mmHg 61%
    17:00 +5°C° 0 mm 5 mps 767 mmHg 66%
    18:00 +4°C° 0 mm 4 mps 767 mmHg 72%
    19:00 +3°C° 0 mm 3 mps 767 mmHg 77%
    20:00 +3°C° 0 mm 4 mps 766 mmHg 77%
    21:00 +3°C° 0 mm 4 mps 766 mmHg 77%
    22:00 +3°C° 0 mm 4 mps 766 mmHg 78%
    23:00 +2°C° 0 mm 5 mps 766 mmHg 78%

    25 March, Monday

    Time Temperature Precipitation Wind Pressure Humidity
    00:00 +2°C° 0 mm 5 mps 766 mmHg 78%
    01:00 +2°C° 0 mm 5 mps 765 mmHg 79%
    02:00 +1°C° 0 mm 5 mps 765 mmHg 81%
    03:00 +1°C° 0 mm 5 mps 764 mmHg 84%
    04:00 +1°C° 0 mm 5 mps 764 mmHg 87%
    05:00 +1°C° 0.2 mm 6 mps 763 mmHg 86%
    06:00 0°C° 0.2 mm 7 mps 763 mmHg 85%
    07:00 +1°C° 0.2 mm 8 mps 762 mmHg 84%
    08:00 +1°C° 0.6 mm 8 mps 762 mmHg 81%
    09:00 +2°C° 0.6 mm 9 mps 761 mmHg 78%
    10:00 +3°C° 0.6 mm 9 mps 761 mmHg 75%
    11:00 +3°C° 0.3 mm 10 mps 761 mmHg 70%
    12:00 +3°C° 0.3 mm 10 mps 760 mmHg 65%
    13:00 +5°C° 0.3 mm 10 mps 760 mmHg 59%
    14:00 +5°C° 0.2 mm 10 mps 760 mmHg 59%
    15:00 +3°C° 0.2 mm 10 mps 760 mmHg 58%
    16:00 +3°C° 0.2 mm 10 mps 760 mmHg 58%
    17:00 +2°C° 0 mm 9 mps 760 mmHg 60%
    18:00 +2°C° 0 mm 8 mps 760 mmHg 62%
    19:00 +1°C° 0 mm 8 mps 760 mmHg 64%
    20:00 +2°C° 0 mm 7 mps 761 mmHg 65%
    21:00 +3°C° 0 mm 7 mps 761 mmHg 66%
    22:00 +3°C° 0 mm 7 mps 762 mmHg 67%
    23:00 +2°C° 0 mm 6 mps 763 mmHg 72%

    26 March, Tuesday

    Time Temperature Precipitation Wind Pressure Humidity
    00:00 +2°C° 0 mm 5 mps 763 mmHg 77%
    01:00 +1°C° 0 mm 5 mps 764 mmHg 83%
    02:00 +1°C° 0 mm 4 mps 765 mmHg 84%
    03:00 +1°C° 0 mm 4 mps 765 mmHg 86%
    04:00 0°C° 0 mm 4 mps 766 mmHg 88%
    05:00 0°C° 0 mm 4 mps 767 mmHg 88%
    06:00 +2°C° 0 mm 3 mps 767 mmHg 87%
    07:00 +2°C° 0 mm 3 mps 768 mmHg 87%
    08:00 +3°C° 0 mm 3 mps 768 mmHg 79%
    09:00 +4°C° 0 mm 3 mps 768 mmHg 71%
    10:00 +5°C° 0 mm 3 mps 769 mmHg 64%
    11:00 +6°C° 0 mm 4 mps 769 mmHg 60%
    12:00 +7°C° 0 mm 4 mps 769 mmHg 56%
    13:00 +7°C° 0 mm 4 mps 769 mmHg 52%
    14:00 +7°C° 0 mm 5 mps 768 mmHg 53%
    15:00 +7°C° 0 mm 5 mps 768 mmHg 54%
    16:00 +7°C° 0 mm 5 mps 768 mmHg 55%
    17:00 +6°C° 0 mm 5 mps 767 mmHg 60%
    18:00 +5°C° 0 mm 4 mps 767 mmHg 65%
    19:00 +4°C° 0 mm 4 mps 767 mmHg 70%
    20:00 +4°C° 0 mm 4 mps 767 mmHg 75%
    21:00 +3°C° 0 mm 5 mps 767 mmHg 80%
    22:00 +5°C° 0 mm 5 mps 766 mmHg 85%
    23:00 +5°C° 0 mm 5 mps 766 mmHg 83%
    Show more